STARLINK-34235, 64760

Orbit data source: Space-Track

STARLINK-34235, 64760 is a payload satellite owned by SpaceX/Seattle (US) in LEO that was launched on Tue, 08 Jul 2025 UTC via an FALCON 9 launch vehicle from the Air Force Eastern Test Range (AFETR). Payload-class satellites include a variety of spacecraft equipped with specific instruments for various scientific and technological missions. These include communications satellites like Starlink; space stations such as the ISS; scientific satellites like the Hubble; Earth observation satellites from companies like Planet Labs, Umbra, and HawkEye 360; GPS; miniature CubeSats for education and research; and military/defense satellites.

Loading next visibility...
Identifier
64760, 2025-147F
Orbit
LEO
Country
Flag of USUS
Related business
Manufacturer
SpaceX/Seattle
Mission
Operational Commercial Communications
Bus & Motor
STARLINK V2MO, Unknown motor
Mass
575 kg wet, ~530 kg dry
Launch date (UTC)
2025-07-08 (11 months ago)
Launch vehicle
FALCON 9
Launch site
Air Force Eastern Test Range (AFETR)
Object type
Payload
Rocket body
Debris
Shape & HBR
Box + 2 Pan, 17.7 m
Radar Cross Section
36.964 m², Large (>1 m²)

Expand to show TLE details & history
Last TLE update: 23 hours ago

TLE from 23 hours ago
0 STARLINK-34235
1 64760U 25147F   26170.88737336  .00031592  00000-0  94202-3 0  9993
2 64760  53.1591 126.9974 0001148  90.0275 270.0859 15.34405833 54459
Epoch: 2026-06-19T21:17Z
TLE epoch observation values (Epoch: 2026-06-19T21:17:49.058Z)
Latitude
-0.00002°
Longitude
-100.56693°
Altitude
463.586 km
Speed
7.636 km/s
True Right ascension
08h 27m 59s
True Declination
0° 00' 00"
Sunlit
Object was in daylight at epoch
Visualization orbit readout
Latitude
Unknown
Longitude
Unknown
Altitude
Unknown
Speed
Unknown
Apparent Right ascension
Unknown
Apparent Declination
Unknown
Sunlit
N/A
Visualization observer readout
Local Sidereal Time
07:23:28
Azimuth
Unknown
Elevation
Unknown
Doppler factor
Unknown
Orbital elements
Apogee altitude
463.728 km
Perigee altitude
462.158 km
Semi-major axis
6,841.08 km
Eccentricity
0.00011
Inclination
53.1591°
RAAN
126.9974°
Arg. of periapsis
90.0275°
True anomaly
270.07274°
Mean anomaly
270.0859°
Eccentric anomaly
270.07932°
Mean motion
3.8358 °/min
Orbital period
93.85 mins
BSTAR
0.00094202
Loading maneuver chart data...
Computing Atmospheric mass density...
Loading historical data...
Loading historical data...
Loading historical data...
Loading historical data...
Loading historical data...
Loading historical data...
Loading historical data...

Documentation

Showing up to 5 results
|